Terug naar catalogus

STARLINK-11744

ActiefCommunicatieVLEO
NORAD 64380·PAYLOAD·🇺🇸 United States

Gelanceerd Jun 13, 2025 vanaf Cape Canaveral Space Force Station

Loading…

Volgende Passages (komende 24 uur)

TLE

VersSource: CelesTrak SupGP

Epoch: Sep 15, 2026, 03:04 UTC

1 64380C 25127L   26258.12826389 -.00099574  00000+0 -77323-3 0  2588
2 64380  43.0010  22.7919 0001707 263.1763 133.8936 15.70892485    17

Volg STARLINK-11744 in realtime met AllMySat

Download on the App Store